Regional Weather Roundup
Issued by NWS

Home | Current Version | Previous Version | Text Only | Print | Product List | Glossary On
Versions: 1 2 3 4 5 6 7 8 9 10 11 12 13 14 15 16 17 18 19 20 21 22 23 24 25 26 27 28 29 30 31 32 33 34 35 36 37 38 39 40 41 42 43 44 45 46 47 48 49 50
000
ASHW40 PHFO 172032
RWRHI

WEATHER ROUNDUP FOR HAWAII
NATIONAL WEATHER SERVICE HONOLULU HI
1000 AM HST TUE JAN 17 2017

THIS IS AN AUTOMATED REPORT THAT HAS NOT BEEN QUALITY CONTROLLED.

NOTE..."FAIR" INDICATES FEW OR NO CLOUDS BELOW 12,000 FEET WITH NO
SIGNIFICANT WEATHER AND/OR OBSTRUCTIONS TO VISIBILITY.

* - THESE SITES REPORT LIMITED FIELDS

HIZ001>004-172100-
KAUAI-NIIHAU-

CITY           SKY/WX    TMP DP  RH WIND       PRES   REMARKS
LIHUE APT      NOT AVBL
PORT ALLEN*      N/A     77 N/A N/A NE9G16      N/A
POIPU*           N/A     79 N/A N/A E5          N/A
PRINCEVILLE*   NOT AVBL
KOKOLE POINT*  NOT AVBL
MOLOAA DAIRY*    N/A     75  64  69 SE6G12      N/A
WAIMEA HTS*    NOT AVBL
PUU OPAE*      NOT AVBL
PUU LUA*       NOT AVBL
MAKAHA RIDGE*    N/A     68  63  83 NW1         N/A
$$

HIZ005>011-172100-
OAHU-

CITY           SKY/WX    TMP DP  RH WIND       PRES   REMARKS
HONOLULU       MOSUNNY   78  60  53 VRB3      30.11R
KALAELOA       PTSUNNY   79  61  53 E8        30.12S
KANEOHE MCB    NOT AVBL
WHEELER FIELD  MOSUNNY   73  62  68 SW3       30.13R
BELLOWS*         N/A    N/A N/A N/A NE9         N/A
KAHUKU*          N/A    N/A N/A N/A NE7G13      N/A
WHEELER*       NOT AVBL
WAIANAE HARBOR NOT AVBL
DILLINGHAM*      N/A     79  61  53 MISG        N/A
KAHUKU TRN*      N/A     70  57  64 W3G14       N/A
KAWAILOA*        N/A     72  61  68 E6G13       N/A
KII*             N/A     75  63  64 E8G15       N/A
MAKUA RANGE*     N/A     82  64  54 NE5         N/A
OAHU FOREST NW NOT AVBL
SCHOFIELD BRK*   N/A     73  63  68 MISG        N/A
SCHOFIELD S*   NOT AVBL
WAIANAE VLY*   NOT AVBL
KUAOKALA*      NOT AVBL
HONOULIUULI*   NOT AVBL
MOKUOLOE IS*   NOT AVBL
PALEHUA*       NOT AVBL
WAIAWA PHB*    NOT AVBL
$$

HIZ012>013-172100-
MOLOKAI-

CITY           SKY/WX    TMP DP  RH WIND       PRES   REMARKS
MOLOKAI AIRPT  PTSUNNY   84  64  50 NE8       30.12R
KALAUPAPA      NOT AVBL
MAKAPULAPAI*     N/A     75  66  73 E13G18      N/A
MOLOKAI 1*     NOT AVBL
PUU ALII*        N/A     62  57  83 NE2         N/A
$$

HIZ016-172100-
KAHOOLAWE-

CITY           SKY/WX    TMP DP  RH WIND       PRES   REMARKS
KAHOOLAWE*     NOT AVBL
HAKIOAWA*        N/A     74  65  74 MISG      30.52F
HONOKANAIA*      N/A     76  63  64 NW8G17    30.04R
KANELOA*         N/A     72  63  73 NE6G18    30.16R
KEALIALALO*    NOT AVBL
LUA MAKIKA*    NOT AVBL
$$

HIZ014>015-172100-
LANAI-

CITY           SKY/WX    TMP DP  RH WIND       PRES   REMARKS
LANAI CITY     FAIR      73  64  73 NE14      30.14S
LANAI 1*       NOT AVBL
$$

HIZ017>028-172100-
MAUI-

CITY           SKY/WX    TMP DP  RH WIND       PRES   REMARKS
KAHULUI        MOSUNNY   77  64  64 NW5       30.10R
KAPALUA-W MAUI PTSUNNY   75  64  69 N14       30.10
HANA AIRPORT   CLOUDY    75  68  78 E6        30.14S
HANA*            N/A     75 N/A N/A E6          N/A
HALEAKALA SUMM   N/A     52  -2  11 E31G58      N/A
MAALAEA BAY*     N/A     79 N/A N/A NE9G15      N/A
HALEAKALA*     NOT AVBL
KAUPO GAP*     NOT AVBL
KULA 1*          N/A    N/A N/A N/A W3G9        N/A
$$

HIZ023>026-172100-
BIG ISLAND OF HAWAII COAST AND LOWER SLOPES-

CITY           SKY/WX    TMP DP  RH WIND       PRES   REMARKS
KAILUA KONA    SUNNY     79  64  60 S8        30.07R
HILO           PTSUNNY   77  68  73 SE8       30.11R
HONOKAA*         N/A     73 N/A N/A VRB1        N/A
KAWAIHAE MWT*  NOT AVBL
KAWAIHAE*        N/A     75 N/A N/A W7        30.09R
SOUTH POINT*     N/A     70 N/A N/A N13G21      N/A
UPOLU AIRPORT* NOT AVBL
KAMUELA*       PTCLDY    70  59  68 SW5       30.19R
HAKALAU*         N/A     73  11   9 E3G9        N/A
KALOKO-HONOKO*   N/A    N/A N/A N/A SW6       30.07R
PALI 2*          N/A     75  61  60 NW9G17      N/A
KEALAKOMO*       N/A     81  66  61 E14G23      N/A
KAUPULEHU*     NOT AVBL
KAPAPALA*      NOT AVBL
LOWER KAHUKU*    N/A     66  59  77 E3G13       N/A
PUHE CS*         N/A     77  63  61 W5G12       N/A
PUHO CS*         N/A     84  58  41 S1          N/A
PTA KEAMUKU*     N/A     64  57  77 CALM        N/A
WAIKOLOA*      NOT AVBL
$$

HIZ027>028-172100-
BIG ISLAND OF HAWAII INTERIOR AND SUMMMITS-

CITY           SKY/WX    TMP DP  RH WIND       PRES   REMARKS
BRADSHAW FIELD MOSUNNY   71   9   9 SE16G26   30.38R
MK VISITOR CEN   N/A     57  -9   6 E17G30      N/A
MAUNA KEA*       N/A     36  -6  17 NE47G63     N/A  WCI  20
MAUNA LOA*       N/A     48 -18   6 MISG        N/A
MAUNA LOA 1*   NOT AVBL
PTA KIPUKA*      N/A     82 -27   1 E16G31      N/A
PTA RANGE 17*    N/A     72 -20   2 SE23G36     N/A
PTA WEST*        N/A     66  48  52 NW7G26      N/A
NENE CABIN*      N/A    N/A N/A N/A E13G24      N/A
AHUMOA*        NOT AVBL
PTA PORTABLE*  NOT AVBL
PUU MALI*        N/A     70 N/A N/A E20G29      N/A
$$

HIC003-172100-
NORTHWEST ISLANDS-

CITY           SKY/WX    TMP DP  RH WIND       PRES   REMARKS
MIDWAY ISLAND  CLOUDY    72  63  73 S6        30.02R
MIDWAY NOS*      N/A     72 N/A N/A MISG      30.00R
FRENCH FRIGATE NOT AVBL
$$

PHZ110>124-180-172100-
BUOY REPORTS

STATION/POSITION TIME  TEMP    WIND        PRES    WAVE   SWELL
                       AIR SEA DIR/SP/G            HT/PER HT/DIR
                 (UTC) (F)     (DEG/KT/KT) (MB)    (FT/S) (FT/D)
BUOY 51001       2010   74 76  180/  4/  6 1020.5
BUOY 51101       1950   74 76  200/  4/  6 1020.9R   9/11   8/300
BUOY 51100       NOT AVBL
BUOY 51002       2010   77 78   70/ 19/ 25 1017.1
BUOY 51003       1950   77 78   50/ 10/ 12 1018.3R   6/10   5/300
BUOY 51004       1950   68 77   90/ 23/ 27 1017.2R   9/ 8   5/320
BARBERS PT BUOY  NOT AVBL
WAIMEA BAY BUOY  2002      75                N/A     5/11   3/320
KAILUA BAY BUOY  2004      76                N/A     5/ 9   2/350
LANAI BUOY       2015      78                N/A     3/12   2/270
BARBERS PT 2     1939      77                N/A     4/12   3/310
PAUWELA MAUI     1939      76                N/A     6/12   3/340
HILO             1942      76                N/A     7/ 9   3/100
KANEOHE BAY BUOY 2006      75                N/A     5/ 9   2/350
HANALEI KAUAI    1952      77                N/A     6/13   3/310
KAHULUI HARBOR   2000   75 77  320/  7/  8 1019.3
HONOLULU HARBOR  2000   76 77   40/  2/  9 1020.4
KILO NALU        NOT AVBL
HILO HARBOR      2000   79 75  160/  5/  8 1019.1
MOKUOLOE         1936   76      90/  6/  9   N/A
NAWILIWILI       2000   76     100/  3/  5 1019.8
WHOTS BUOY       NOT AVBL
BUOY 51028       NOT AVBL
$$

......................KEY........................................
  SKY/WX - SKY CONDITIONS/PRESENT WEATHER
  TMP    - TEMPERATURE IN FAHRENHEIT
  DWPT   - DEWPOINT IN FAHRENHEIT
  RH     - RELATIVE HUMIDITY IN PERCENT
  WIND   - DIRECTION AND SPEED /MPH FOR ISLANDS...KTS FOR BUOYS/
  PRES   - MEAN SEA LEVEL PRESSURE IN INCHES OF HG
  VSB    - VISIBILITY IN MILES
  HX     - HEAT INDEX
  WCI    - WIND CHILL INDEX
  VRB    - VARIABLE WIND DIRECTION
  N/A    - NOT AVAILABLE



USA.gov is the U.S. government's official web portal to all federal, state and local government web resources and services.